PROFILE

 METAR AND TAF INFORMATION
ADDS - METARS form results

(2108 UTC 18 February 2019)
http://aviationweather.gov/metar/data/
 
TIST 182053Z 09015KT 10SM FEW030 28/18 A3009 RMK AO2 SLP188 60000 T02830183 55006 $
TIST 181739Z 1818/1918 09014G20KT P6SM VCSH SCT030 FM182200 08011KT P6SM FEW030 FM191400 07014KT P6SM SCT030 

 AIRPORT MAP

 RUNWAY INFORMATION
Runway 10 Runway length 7000 ft Runway width 150 ft
Runway elevation 23 ft Runway displaced threshold 0 ft Runway heading 88
Runway 28 Runway length 7000 ft Runway width 150 ft
Runway elevation 11 ft Runway displaced threshold 2300 ft Runway heading 268

 AIRPORT FREQUENCIES
Type A/D Name SAN JUAN C Frequency 128.65 MHZ
Type APP Name ST THOMAS Frequency 118.8 MHZ
Type ATIS Name ATIS Frequency 124 MHZ
Type CTAF Name CTAF Frequency 118.8 MHZ
Type DEP Name ST THOMAS Frequency 118.8 MHZ
Type GND Name GND Frequency 121.9 MHZ
Type RDO Name SAN JUAN R Frequency 108.6 MHZ
Type TWR Name ST THOMAS Frequency 118.1 MHZ
Type UNIC Name UNICOM Frequency 122.95 MHZ

 AIRPORT NEAR NAVIGATION AIDS
Type VOR-DME Name St Thomas Frequency 108600 KHZ